This demonstration page uses our WeatherBlox Daily Observations layout. Learn more.

Left ArrowRight Arrow

Hourly Observations for August 29, 2021

Temp ( °F °C ) Dew Point ( °F °C ) Humidity (%) Winds ( mph kmh ) Pressure ( in mb ) Visibility ( mi km ) Precip ( " mm )
12:51 am 00:51 Clear 78 25.6 61 16.1 56 56 E 5 7 29.75 1008 10 16 0.00 0.00
1:51 am 01:51 Clear 75 23.9 63 17.2 66 66 SE 5 7 29.76 1008 10 16 0.00 0.00
2:51 am 02:51 Clear 75 23.9 61 16.1 62 62 WSW 3 6 29.75 1007 10 16 0.00 0.00
3:51 am 03:51 Clear 71 21.7 63 17.2 76 76 Calm 29.76 1008 10 16 0.00 0.00
4:51 am 04:51 Clear 72 22.2 63 17.2 73 73 ESE 3 6 29.78 1008 10 16 0.00 0.00
5:51 am 05:51 Clear 70 21.1 62 16.7 76 76 E 6 9 29.80 1009 10 16 0.00 0.00
6:51 am 06:51 Sunny 75 23.9 62 16.7 64 64 Calm 29.82 1010 10 16 0.00 0.00
7:51 am 07:51 Sunny 82 27.8 58 14.4 44 44 SE 8 13 29.81 1009 10 16 0.00 0.00
8:15 am 08:15 Mostly Sunny 84 28.9 57 13.9 40 40 SE 9 15 29.74 1007 10 16 0.00 0.00
8:51 am 08:51 Sunny 85 29.4 57 13.9 39 39 SE 9 15 29.80 1009 10 16 0.00 0.00
9:51 am 09:51 Sunny 90 32.2 57 13.9 33 33 SE 8 13 29.79 1009 10 16 0.00 0.00
10:51 am 10:51 Sunny 92 33.3 58 14.4 32 32 S 8 13 29.77 1008 10 16 0.00 0.00
11:51 am 11:51 Sunny 95 35 59 15 30 30 VRB 6 9 29.75 1008 10 16 0.00 0.00
12:51 pm 12:51 Sunny 96 35.6 59 15 29 29 SSW 8 13 29.72 1007 10 16 0.00 0.00
1:51 pm 13:51 Sunny 97 36.1 57 13.9 26 26 S 9 15 29.71 1006 10 16 0.00 0.00
2:51 pm 14:51 Sunny 99 37.2 56 13.3 24 24 S 8 13 29.67 1005 10 16 0.00 0.00
3:14 pm 15:14 Sunny with Nearby Thunderstorms 98 36.7 56 13.3 24 24 SSW 3 6 29.54 1000 10 16 0.00 0.00
3:36 pm 15:36 Sunny with Thunderstorms 98 36.7 55 12.8 24 24 ESE 10 17 29.54 1000 10 16 0.00 0.00
3:51 pm 15:51 Sunny with Nearby Thunderstorms 100 37.8 54 12.2 21 21 E 15 24 29.66 1004 10 16 0.00 0.00
3:58 pm 15:58 Sunny with Nearby Thunderstorms 100 37.8 53 11.7 21 21 E 17 28 29.52 1000 10 16 0.00 0.00
4:07 pm 16:07 Sunny 99 37.2 53 11.7 21 21 E 16 26 29.53 1000 10 16 0.00 0.00
4:51 pm 16:51 Sunny 99 37.2 52 11.1 21 21 ENE 10 17 29.65 1004 10 16 0.00 0.00
5:51 pm 17:51 Sunny 97 36.1 55 12.8 24 24 ENE 14 22 29.66 1004 10 16 0.00 0.00
6:51 pm 18:51 Mostly Cloudy 90 32.2 57 13.9 33 33 NE 18 30 29.69 1005 10 16 0.00 0.00
7:15 pm 19:15 Mostly Clear with Nearby Thunderstorms 89 31.7 55 12.8 31 31 NE 18 30 29.60 1002 10 16 0.00 0.00
7:40 pm 19:40 Clear with Thunderstorms 89 31.7 54 12.2 30 30 NE 18 30 29.61 1003 10 16 0.00 0.00
7:51 pm 19:51 Clear with Nearby Thunderstorms 89 31.7 54 12.2 30 30 NE 20 31 29.70 1006 10 16 0.00 0.00
8:28 pm 20:28 Mostly Cloudy with Nearby Thunderstorms 83 28.3 59 15 44 44 SW 18 30 29.72 1006 10 16 0.00 0.00
8:51 pm 20:51 Mostly Cloudy with Nearby Thunderstorms 80 26.7 61 16.1 52 52 SW 6 9 29.78 1008 10 16 0.00 0.00
9:51 pm 21:51 Cloudy with Nearby Thunderstorms 79 26.1 64 17.8 60 60 SSW 15 24 29.81 1010 10 16 0.00 0.00
10:04 pm 22:04 Mostly Cloudy with Thunderstorms 76 24.4 64 17.8 67 67 SW 17 28 29.80 1009 10 16 0.00 0.00
10:51 pm 22:51 Cloudy with Thunderstorms 71 21.7 66 18.9 84 84 VRB 3 6 29.80 1009 10 16 0.09 2.29
11:16 pm 23:16 Cloudy with Nearby Thunderstorms 72 22.2 66 18.9 82 82 NNW 8 13 29.80 1009 10 16 0.02 0.51
11:29 pm 23:29 Mostly Cloudy with Light Rain 71 21.7 66 18.9 84 84 N 14 22 29.81 1009 10 16 0.02 0.51
11:51 pm 23:51 Mostly Cloudy with Light Rain 73 22.8 65 18.3 76 76 N 10 17 29.78 1008 10 16 0.03 0.76

Powered by AerisWeather